| time (UTC) | temp F | wind direction | speed MPH | gust MPH | rain 1hr in | rain 24hr in | rain mn in | humidity % | barometer mb |
| 20260506200025 | 54 | 51 | 0.0 | 2.0 | 0.00 | 1.44 | 1.30 | 90 | 1012.6 |
| 20260506194552 | 54 | 291 | 0.0 | 0.0 | 0.00 | 1.44 | 1.30 | 91 | 1012.4 |
| 20260506193059 | 54 | 291 | 0.0 | 0.0 | 0.00 | 1.44 | 1.30 | 90 | 1012.2 |
| 20260506191522 | 55 | 291 | 0.0 | 0.0 | 0.00 | 1.44 | 1.30 | 89 | 1011.9 |
| 20260506190032 | 55 | 37 | 0.0 | 0.0 | 0.00 | 1.50 | 1.30 | 88 | 1011.6 |
| 20260506184604 | 55 | 37 | 0.0 | 0.0 | 0.03 | 1.50 | 1.30 | 87 | 1011.5 |
| 20260506183010 | 56 | 105 | 1.0 | 8.0 | 0.08 | 1.50 | 1.30 | 85 | 1010.8 |
| 20260506181527 | 56 | 111 | 1.0 | 10.0 | 0.24 | 1.50 | 1.30 | 85 | 1010.8 |
| 20260506180028 | 55 | 83 | 0.0 | 10.0 | 0.24 | 1.56 | 1.30 | 86 | 1010.4 |
| 20260506174539 | 55 | 84 | 0.0 | 1.0 | 0.21 | 1.53 | 1.27 | 85 | 1010.6 |
| 20260506173136 | 57 | 75 | 0.0 | 5.0 | 0.17 | 1.49 | 1.23 | 81 | 1010.3 |
| 20260506171600 | 59 | 105 | 0.0 | 11.0 | 0.00 | 1.32 | 1.06 | 74 | 1010.0 |
| 20260506170011 | 61 | 88 | 0.0 | 2.0 | 0.00 | 1.36 | 1.06 | 73 | 1009.8 |
| 20260506164526 | 61 | 97 | 0.0 | 7.0 | 0.00 | 1.36 | 1.06 | 72 | 1009.8 |
| 20260506163102 | 61 | 77 | 0.0 | 9.0 | 0.00 | 1.36 | 1.06 | 72 | 1009.6 |
| 20260506161513 | 61 | 104 | 0.0 | 3.0 | 0.00 | 1.36 | 1.06 | 72 | 1009.3 |
| 20260506160016 | 60 | 124 | 2.0 | 12.0 | 0.00 | 1.38 | 1.06 | 74 | 1009.1 |
| 20260506154536 | 60 | 106 | 0.0 | 13.0 | 0.00 | 1.38 | 1.06 | 75 | 1009.5 |
| 20260506153047 | 60 | 81 | 0.0 | 8.0 | 0.00 | 1.38 | 1.06 | 76 | 1009.6 |
| 20260506151507 | 60 | 76 | 0.0 | 7.0 | 0.00 | 1.38 | 1.06 | 77 | 1010.0 |
| 20260506150024 | 60 | 91 | 0.0 | 10.0 | 0.00 | 1.38 | 1.06 | 77 | 1009.9 |
| 20260506144554 | 60 | 57 | 2.0 | 9.0 | 0.00 | 1.38 | 1.06 | 79 | 1009.9 |
| 20260506143020 | 60 | 51 | 7.0 | 16.0 | 0.00 | 1.38 | 1.06 | 80 | 1010.1 |
| 20260506141533 | 60 | 99 | 0.0 | 12.0 | 0.00 | 1.38 | 1.06 | 80 | 1010.1 |
| 20260506140044 | 60 | 88 | 0.0 | 4.0 | 0.00 | 1.38 | 1.06 | 81 | 1010.1 |
| 20260506134555 | 59 | 69 | 0.0 | 2.0 | 0.00 | 1.38 | 1.06 | 82 | 1010.1 |
| 20260506133021 | 56 | 53 | 0.0 | 5.0 | 0.00 | 1.38 | 1.06 | 85 | 1010.6 |
| 20260506131552 | 55 | 38 | 0.0 | 5.0 | 0.00 | 1.38 | 1.06 | 87 | 1010.7 |
| 20260506130034 | 54 | 46 | 0.0 | 3.0 | 0.17 | 1.39 | 1.06 | 91 | 1010.6 |
| 20260506124547 | 53 | 13 | 0.0 | 0.0 | 0.44 | 1.39 | 1.06 | 94 | 1010.5 |
| 20260506123016 | 51 | 34 | 0.0 | 2.0 | 0.47 | 1.39 | 1.06 | 93 | 1010.6 |
| 20260506121543 | 50 | 17 | 0.0 | 5.0 | 0.47 | 1.39 | 1.06 | 92 | 1010.8 |
| 20260506120106 | 50 | 321 | 0.0 | 6.0 | 0.30 | 1.23 | 0.89 | 91 | 1010.8 |
| 20260506114534 | 51 | 308 | 2.0 | 22.0 | 0.08 | 0.96 | 0.62 | 89 | 1010.2 |
| 20260506113049 | 53 | 28 | 3.0 | 16.0 | 0.16 | 0.93 | 0.59 | 86 | 1010.0 |
| 20260506111518 | 55 | 22 | 3.0 | 10.0 | 0.16 | 0.93 | 0.59 | 88 | 1009.9 |
| 20260506110033 | 57 | 202 | 0.0 | 10.0 | 0.16 | 0.95 | 0.59 | 90 | 1009.6 |
| 20260506104547 | 58 | 128 | 1.0 | 11.0 | 0.11 | 0.90 | 0.54 | 88 | 1009.4 |
| 20260506103016 | 58 | 151 | 2.0 | 12.0 | 0.00 | 0.79 | 0.43 | 85 | 1009.5 |
| 20260506101539 | 59 | 109 | 2.0 | 13.0 | 0.00 | 0.79 | 0.43 | 85 | 1009.8 |
| 20260506100051 | 60 | 142 | 1.0 | 12.0 | 0.00 | 0.80 | 0.43 | 84 | 1009.7 |
| 20260506094515 | 61 | 126 | 2.0 | 14.0 | 0.00 | 0.80 | 0.43 | 85 | 1009.4 |
| 20260506093045 | 60 | 126 | 2.0 | 18.0 | 0.00 | 0.80 | 0.43 | 86 | 1009.2 |
| 20260506091538 | 59 | 133 | 2.0 | 18.0 | 0.00 | 0.80 | 0.43 | 88 | 1009.2 |
| 20260506090058 | 57 | 143 | 1.0 | 11.0 | 0.00 | 0.81 | 0.43 | 90 | 1009.1 |
| 20260506084511 | 57 | 170 | 3.0 | 17.0 | 0.00 | 0.81 | 0.43 | 93 | 1009.2 |
| 20260506083040 | 57 | 136 | 1.0 | 13.0 | 0.00 | 0.81 | 0.43 | 95 | 1009.5 |
| 20260506081604 | 57 | 145 | 0.0 | 2.0 | 0.00 | 0.81 | 0.43 | 97 | 1009.5 |
| 20260506073032 | 56 | 177 | 0.0 | 0.0 | 0.00 | 0.89 | 0.43 | 97 | 1009.9 |
| 20260506071512 | 56 | 166 | 0.0 | 0.0 | 0.00 | 0.89 | 0.43 | 97 | 1009.9 |
| 20260506061558 | 56 | 155 | 0.0 | 0.0 | 0.00 | 1.02 | 0.43 | 97 | 1010.1 |
| 20260506050104 | 54 | 119 | 0.0 | 0.0 | 0.28 | 1.09 | 0.42 | 97 | 1010.6 |
| 20260506044525 | 54 | 319 | 0.0 | 0.0 | 0.27 | 1.10 | 0.40 | 97 | 1010.9 |
| 20260506043016 | 54 | 319 | 0.0 | 0.0 | 0.01 | 0.84 | 0.14 | 97 | 1011.1 |
| 20260506041557 | 54 | 319 | 0.0 | 0.0 | 0.01 | 0.84 | 0.14 | 97 | 1011.0 |
| 20260506034526 | 54 | 319 | 0.0 | 0.0 | 0.00 | 0.83 | 0.13 | 97 | 1011.2 |
| 20260506033056 | 54 | 319 | 0.0 | 0.0 | 0.01 | 0.83 | 0.13 | 97 | 1011.3 |
| 20260506031520 | 54 | 319 | 0.0 | 0.0 | 0.01 | 0.83 | 0.13 | 97 | 1011.3 |
| 20260506024534 | 54 | 319 | 0.0 | 0.0 | 0.02 | 0.83 | 0.13 | 97 | 1012.0 |
| 20260506023001 | 54 | 319 | 0.0 | 0.0 | 0.01 | 0.82 | 0.12 | 97 | 1012.1 |
| 20260506021531 | 54 | 319 | 0.0 | 0.0 | 0.01 | 0.82 | 0.12 | 97 | 1012.4 |
| 20260506020106 | 54 | 319 | 0.0 | 0.0 | 0.08 | 0.81 | 0.11 | 97 | 1012.3 |
| 20260506014550 | 54 | 319 | 0.0 | 0.0 | 0.09 | 0.81 | 0.11 | 97 | 1012.5 |
| 20260506013014 | 54 | 319 | 0.0 | 0.0 | 0.09 | 0.81 | 0.11 | 97 | 1012.4 |
| 20260506011547 | 54 | 319 | 0.0 | 0.0 | 0.09 | 0.81 | 0.11 | 97 | 1012.5 |
| 20260506010036 | 54 | 319 | 0.0 | 0.0 | 0.02 | 0.73 | 0.03 | 97 | 1012.8 |
| 20260506004501 | 54 | 319 | 0.0 | 0.0 | 0.02 | 0.72 | 0.02 | 97 | 1013.0 |
| 20260506003030 | 54 | 319 | 0.0 | 0.0 | 0.02 | 0.72 | 0.02 | 97 | 1013.1 |
| 20260506001608 | 54 | 319 | 0.0 | 0.0 | 0.02 | 0.72 | 0.02 | 97 | 1013.1 |
| 20260506000125 | 54 | 319 | 0.0 | 0.0 | 0.01 | 0.71 | 0.01 | 97 | 1013.2 |
| 20260505234512 | 54 | 319 | 0.0 | 0.0 | 0.00 | 0.70 | 0.00 | 97 | 1013.5 |
| 20260505233022 | 54 | 319 | 0.0 | 0.0 | 0.00 | 0.70 | 0.00 | 97 | 1013.6 |
| 20260505231529 | 54 | 319 | 0.0 | 0.0 | 0.00 | 0.70 | 0.00 | 97 | 1013.7 |
| 20260505230048 | 54 | 319 | 0.0 | 0.0 | 0.00 | 0.70 | 0.00 | 97 | 1013.8 |
| 20260505224507 | 54 | 319 | 0.0 | 0.0 | 0.00 | 0.70 | 0.00 | 97 | 1014.0 |
| 20260505223021 | 54 | 319 | 0.0 | 0.0 | 0.00 | 0.70 | 0.00 | 96 | 1014.2 |
| 20260505221557 | 54 | 319 | 0.0 | 0.0 | 0.00 | 0.70 | 0.00 | 96 | 1014.0 |
| 20260505220107 | 54 | 319 | 0.0 | 0.0 | 0.00 | 0.70 | 0.00 | 96 | 1014.1 |
| 20260505214523 | 54 | 319 | 0.0 | 0.0 | 0.01 | 0.70 | 0.70 | 97 | 1014.3 |
| 20260505213051 | 54 | 319 | 0.0 | 0.0 | 0.02 | 0.70 | 0.70 | 96 | 1014.5 |
| 20260505211528 | 54 | 319 | 0.0 | 0.0 | 0.03 | 0.70 | 0.70 | 96 | 1014.7 |
| 20260505210019 | 54 | 319 | 0.0 | 0.0 | 0.05 | 0.70 | 0.70 | 96 | 1014.8 |
| 20260505204539 | 54 | 319 | 0.0 | 0.0 | 0.07 | 0.69 | 0.69 | 96 | 1014.8 |
| 20260505203048 | 54 | 319 | 0.0 | 0.0 | 0.09 | 0.68 | 0.68 | 96 | 1015.0 |
| 20260505201514 | 54 | 319 | 0.0 | 0.0 | 0.09 | 0.67 | 0.67 | 96 | 1014.9 |